Regional Weather Roundup
Issued by NWS

Home | Current Version | Previous Version | Text Only | Print | Product List | Glossary Off
Versions: 1 2 3 4 5 6 7 8 9 10 11 12 13 14 15 16 17 18 19 20 21 22 23 24 25 26 27 28 29 30 31 32 33 34 35 36 37 38 39 40 41 42 43 44 45 46 47 48 49 50

000
ASUS43 KLOT 302306
RWRIL

ILLINOIS REGIONAL WEATHER ROUNDUP
NATIONAL WEATHER SERVICE CHICAGO/ROMEOVILLE IL
500 PM CST FRI JAN 30 2015

NOTE: "FAIR" INDICATES FEW OR NO CLOUDS BELOW 12,000 FEET WITH NO
SIGNIFICANT WEATHER AND/OR OBSTRUCTIONS TO VISIBILITY.

* THESE STATIONS ARE NOT UNDER NWS QUALITY CONTROL. THEY ALSO MAY NOT
  REPORT WEATHER SUCH AS PRECIPITATION OR FOG.

ILZ001-002-007-009-015-016-024-310000-
NORTHWEST ILLINOIS

CITY           SKY/WX    TMP DP  RH WIND       PRES   REMARKS
MOLINE         CLEAR     28  16  60 SW5       30.44F WCI  23
STERLING*      CLEAR     25  14  63 CALM      30.45F
SAVANNA*       CLEAR     27  15  61 SW6       30.43F WCI  20
$$

ILZ003-004-008-010-011-017-018-310000-
NORTH CENTRAL ILLINOIS

CITY           SKY/WX    TMP DP  RH WIND       PRES   REMARKS
ROCKFORD       PTCLDY    26  13  57 SW7       30.44F WCI  18
FREEPORT*      CLEAR     23  14  67 SW8       30.43F WCI  14
ROCHELLE*      CLEAR     24  16  69 SW8       30.44F WCI  15
DE KALB*       CLEAR     23  15  70 SW7       30.42F WCI  15
PERU*          CLEAR     27  18  67 NW3       30.45F
$$

ILZ005-006-012>014-019>023-310000-
NORTHEAST ILLINOIS

CITY           SKY/WX    TMP DP  RH WIND       PRES   REMARKS
CHICAGO-OHARE  CLEAR     27   9  46 W7        30.42F WCI  19
CHICAGO-MIDWAY PTCLDY    29  15  56 SE8       30.43F WCI  21
AURORA         CLEAR     26  13  57 W6        30.44F WCI  19
LANSING*       CLEAR     29  14  54 CALM      30.44F
JOLIET*        CLEAR     27  12  54 W5        30.45S WCI  21
WAUKEGAN       CLEAR     24  13  62 CALM      30.41F
DUPAGE AIRPORT CLEAR     26  12  55 W7        30.42F WCI  18
KANKAKEE*      CLEAR     29  20  70 SW7       30.46F WCI  22
WHEELING       CLEAR     28   7  41 W7        30.44F WCI  21
MORRIS*        CLEAR     27  19  70 W6        30.44F WCI  21
ROMEOVILLE*    CLEAR     27  15  61 W7        30.44S WCI  19
NORTHERLY ISL    N/A     24  15  68 SE3         N/A
$$

LMZ740>746-310000-
SOUTHERN LAKE MICHIGAN

STATION/POSITION SKY/WX   TEMP    WIND        PRES    VSBY  WAVE
                          AIR SEA DIR/SP/G                  HT/PER
                          (F)     (DEG/KT/KT) (MB)    (MI)  (FT/S)
WAUKEGAN HARBOR            27     160/  6/  7   N/A
HARRISON CRIB              25     130/  5/  7   N/A
BURNHAM HARBOR             24     120/  4/  5   N/A
CALUMET HARBOR             25      80/  4/  5   N/A
MICHIGAN CITY              26      CALM  /  2   N/A
$$

ILZ025>027-034>036-040-047-049-050-058-095>099-310000-
WEST-CENTRAL ILLINOIS

CITY           SKY/WX    TMP DP  RH WIND       PRES   REMARKS
QUINCY         CLEAR     32  14  47 SW5       30.44F WCI  27
GALESBURG*     CLEAR     29  20  67 CALM      30.44F
MACOMB*        CLEAR     32  23  69 NE3       30.47F
JACKSONVILLE*  CLEAR     34  20  56 W3        30.45F
PITTSFIELD*    CLEAR     36  20  52 SW3       30.46S
$$

ILZ028>032-037-038-041>044-048-051>054-059>061-310000-
CENTRAL ILLINOIS

CITY           SKY/WX    TMP DP  RH WIND       PRES   REMARKS
PONTIAC        CLEAR     30  22  71 W3        30.46F
BLOOMINGTON    CLEAR     30  20  66 SW6       30.46S WCI  24
DECATUR        CLEAR     33  18  53 CALM      30.46F
PEORIA         CLEAR     34  18  52 CALM      30.46F
LACON*         PTCLDY    29  18  62 W3        30.45F
LINCOLN*       CLEAR     33  23  65 CALM      30.47F
SPRINGFIELD    CLEAR     33  21  61 W5        30.46F WCI  29
TAYLORVILLE    CLEAR     32  23  69 W3        30.46F
$$

ILZ033-039-045-046-055>057-062-063-310000-
EAST-CENTRAL ILLINOIS

CITY           SKY/WX    TMP DP  RH WIND       PRES   REMARKS
CHAMPAIGN      CLEAR     31  18  58 W3        30.46S
DANVILLE*      CLEAR     30  17  59 E3        30.43F
RANTOUL*       CLEAR     31  20  63 CALM      30.46S
MATTOON        CLEAR     31  18  58 N3        30.45F
PARIS*         CLEAR     32  20  61 NW3       30.47S
$$

ILZ079-100>102-310000-
SOUTHWEST ILLINOIS

CITY           SKY/WX    TMP DP  RH WIND       PRES   REMARKS
ALTON          CLEAR     36  16  44 VRB6      30.47S WCI  31
BELLEVILLE     CLEAR     36  21  55 E2        30.46F
CAHOKIA*       CLEAR     38  17  42 CALM      30.47S
SPARTA*        CLEAR     36  21  53 CALM      30.48F
$$

ILZ064>066-069>071-074>076-080>082-084>086-088>090-092>094-310000-
SOUTH-CENTRAL ILLINOIS

CITY           SKY/WX    TMP DP  RH WIND       PRES   REMARKS
CARBONDALE     CLEAR     38  18  44 CALM      30.47F
CAIRO*         CLEAR     43  19  38 NE3       30.46F
EFFINGHAM*     CLEAR     34  19  55 CALM      30.49S
MARION         MOCLDY    37  21  52 N6        30.48S WCI  33
MT. VERNON     CLEAR     37  18  44 CALM      30.47S
CENTRALIA*     CLEAR     35  23  62 N6        30.46F WCI  30
SALEM*         CLEAR     37  23  57 W5        30.47S WCI  33
METROPOLIS*    CLEAR     41  20  42 N5        30.45S
$$

ILZ067-068-072-073-078-083-087-091-310000-
SOUTHEAST ILLINOIS

CITY           SKY/WX    TMP DP  RH WIND       PRES   REMARKS
LAWRENCEVILLE  CLEAR     35  21  56 N6        30.48R WCI  30
FLORA*         CLEAR     35  20  55 NE3       30.48S
FAIRFIELD*     CLEAR     35  20  54 CALM      30.47S
HARRISBURG*    CLEAR     37  22  56 NE3       30.48S
ROBINSON*      CLEAR     34  21  59 NW6       30.49S WCI  28
CARMI*         CLEAR     37  25  60 N3        30.47S
$$

ABBREVIATIONS USED IN REMARKS
   TC - TEMPERATURE IN CELSIUS
  WCI - WIND CHILL INDEX
   HX - HEAT INDEX
  VSB - VISIBILITY
$$



USA.gov is the U.S. government's official web portal to all federal, state and local government web resources and services.